• In Deutschland
  • Länderverzeichnis
  • Für 7 Tage
  • Wassertemperatur
  • Satellitenkarten
  • Wetterkarte
  • Widgets
  • user-avatar
    Anmelden

    Stündliche Wetter Kaufbeuren

    Heute, 15 August, Mittwoch

    Zeit Temperatur Niederschläge Wind Luftdruck Luftfeuchtigkeit
    00:00 +14°C° 0,1 mm 1 m/S 704 mmHg 92%
    01:00 +14°C° 0,1 mm 1 m/S 704 mmHg 93%
    02:00 +14°C° 0 mm 1 m/S 704 mmHg 93%
    03:00 +13°C° 0 mm 1 m/S 704 mmHg 94%
    04:00 +13°C° 0 mm 1 m/S 704 mmHg 94%
    05:00 +14°C° 0 mm 1 m/S 705 mmHg 93%
    06:00 +15°C° 0 mm 1 m/S 705 mmHg 92%
    07:00 +15°C° 0 mm 1 m/S 705 mmHg 91%
    08:00 +18°C° 0,1 mm 1 m/S 705 mmHg 84%
    09:00 +20°C° 0,1 mm 1 m/S 705 mmHg 77%
    10:00 +22°C° 0,1 mm 1 m/S 706 mmHg 71%
    11:00 +23°C° 0 mm 1 m/S 706 mmHg 67%
    12:00 +23°C° 0 mm 1 m/S 705 mmHg 63%
    13:00 +24°C° 0 mm 1 m/S 705 mmHg 59%
    14:00 +24°C° 0 mm 1 m/S 705 mmHg 59%
    15:00 +24°C° 0 mm 1 m/S 705 mmHg 60%
    16:00 +24°C° 0 mm 1 m/S 705 mmHg 60%
    17:00 +23°C° 0 mm 1 m/S 705 mmHg 67%
    18:00 +21°C° 0 mm 1 m/S 705 mmHg 74%
    19:00 +20°C° 0 mm 1 m/S 705 mmHg 82%
    20:00 +19°C° 0 mm 1 m/S 705 mmHg 84%
    21:00 +18°C° 0 mm 1 m/S 705 mmHg 87%
    22:00 +15°C° 0 mm 1 m/S 705 mmHg 90%
    23:00 +15°C° 0 mm 1 m/S 705 mmHg 91%

    Morgen, 16 August, Donnerstag

    Zeit Temperatur Niederschläge Wind Luftdruck Luftfeuchtigkeit
    00:00 +15°C° 0 mm 1 m/S 705 mmHg 92%
    01:00 +14°C° 0 mm 1 m/S 705 mmHg 93%
    02:00 +14°C° 0 mm 1 m/S 704 mmHg 93%
    03:00 +14°C° 0 mm 1 m/S 704 mmHg 93%
    04:00 +13°C° 0 mm 1 m/S 704 mmHg 93%
    05:00 +14°C° 0 mm 1 m/S 704 mmHg 91%
    06:00 +15°C° 0 mm 1 m/S 704 mmHg 88%
    07:00 +16°C° 0 mm 1 m/S 704 mmHg 86%
    08:00 +19°C° 0 mm 1 m/S 704 mmHg 78%
    09:00 +22°C° 0 mm 1 m/S 704 mmHg 69%
    10:00 +24°C° 0 mm 1 m/S 704 mmHg 61%
    11:00 +25°C° 0 mm 2 m/S 704 mmHg 58%
    12:00 +26°C° 0 mm 2 m/S 704 mmHg 55%
    13:00 +27°C° 0 mm 2 m/S 703 mmHg 52%
    14:00 +26°C° 0 mm 2 m/S 703 mmHg 54%
    15:00 +26°C° 0 mm 2 m/S 703 mmHg 55%
    16:00 +26°C° 0 mm 2 m/S 702 mmHg 57%
    17:00 +25°C° 0 mm 2 m/S 702 mmHg 65%
    18:00 +23°C° 0 mm 2 m/S 702 mmHg 73%
    19:00 +21°C° 0 mm 1 m/S 702 mmHg 82%
    20:00 +20°C° 0 mm 1 m/S 702 mmHg 85%
    21:00 +19°C° 0 mm 1 m/S 702 mmHg 88%
    22:00 +18°C° 0 mm 1 m/S 702 mmHg 92%
    23:00 +16°C° 0 mm 1 m/S 702 mmHg 91%

    übermorgen, 17 August, Freitag

    Zeit Temperatur Niederschläge Wind Luftdruck Luftfeuchtigkeit
    00:00 +16°C° 0 mm 1 m/S 702 mmHg 91%
    01:00 +16°C° 0 mm 1 m/S 702 mmHg 91%
    02:00 +15°C° 0 mm 1 m/S 702 mmHg 91%
    03:00 +15°C° 0 mm 1 m/S 702 mmHg 91%
    04:00 +15°C° 0 mm 1 m/S 701 mmHg 91%
    05:00 +16°C° 0 mm 1 m/S 702 mmHg 89%
    06:00 +18°C° 0 mm 1 m/S 702 mmHg 86%
    07:00 +19°C° 0 mm 1 m/S 702 mmHg 84%
    08:00 +21°C° 0 mm 1 m/S 702 mmHg 76%
    09:00 +23°C° 0 mm 1 m/S 703 mmHg 68%
    10:00 +25°C° 0 mm 2 m/S 703 mmHg 60%
    11:00 +25°C° 0,4 mm 2 m/S 703 mmHg 60%
    12:00 +26°C° 0,4 mm 2 m/S 703 mmHg 60%
    13:00 +26°C° 0,4 mm 2 m/S 703 mmHg 60%
    14:00 +26°C° 0,8 mm 2 m/S 703 mmHg 66%
    15:00 +25°C° 0,8 mm 2 m/S 703 mmHg 72%
    16:00 +25°C° 0,8 mm 2 m/S 703 mmHg 79%
    17:00 +23°C° 1 mm 2 m/S 703 mmHg 83%
    18:00 +21°C° 1 mm 2 m/S 703 mmHg 86%
    19:00 +19°C° 1 mm 2 m/S 704 mmHg 90%
    20:00 +18°C° 1 mm 2 m/S 704 mmHg 92%
    21:00 +17°C° 1 mm 2 m/S 704 mmHg 94%
    22:00 +17°C° 1 mm 2 m/S 705 mmHg 95%
    23:00 +16°C° 0,3 mm 2 m/S 705 mmHg 96%

    18 August, Samstag

    Zeit Temperatur Niederschläge Wind Luftdruck Luftfeuchtigkeit
    00:00 +16°C° 0,3 mm 1 m/S 705 mmHg 96%
    01:00 +16°C° 0,3 mm 1 m/S 705 mmHg 97%
    02:00 +15°C° 0 mm 1 m/S 705 mmHg 97%
    03:00 +15°C° 0 mm 1 m/S 705 mmHg 97%
    04:00 +15°C° 0 mm 1 m/S 705 mmHg 97%
    05:00 +15°C° 0,1 mm 1 m/S 705 mmHg 97%
    06:00 +15°C° 0,1 mm 1 m/S 705 mmHg 97%
    07:00 +16°C° 0,1 mm 1 m/S 706 mmHg 97%
    08:00 +18°C° 0 mm 1 m/S 706 mmHg 94%
    09:00 +19°C° 0 mm 1 m/S 706 mmHg 91%
    10:00 +20°C° 0 mm 1 m/S 706 mmHg 88%
    11:00 +21°C° 0 mm 1 m/S 706 mmHg 82%
    12:00 +21°C° 0 mm 2 m/S 706 mmHg 76%
    13:00 +23°C° 0 mm 2 m/S 706 mmHg 70%
    14:00 +23°C° 0,1 mm 2 m/S 706 mmHg 71%
    15:00 +23°C° 0,1 mm 2 m/S 706 mmHg 72%
    16:00 +23°C° 0,1 mm 2 m/S 706 mmHg 72%
    17:00 +21°C° 0,2 mm 2 m/S 706 mmHg 77%
    18:00 +21°C° 0,2 mm 1 m/S 706 mmHg 82%
    19:00 +20°C° 0,2 mm 1 m/S 706 mmHg 87%
    20:00 +19°C° 0,1 mm 1 m/S 706 mmHg 88%
    21:00 +18°C° 0,1 mm 1 m/S 706 mmHg 89%
    22:00 +15°C° 0,1 mm 0 m/S 707 mmHg 90%
    23:00 +15°C° 0 mm 0 m/S 707 mmHg 91%

    19 August, Sonntag

    Zeit Temperatur Niederschläge Wind Luftdruck Luftfeuchtigkeit
    00:00 +15°C° 0 mm 0 m/S 707 mmHg 91%
    01:00 +14°C° 0 mm 0 m/S 707 mmHg 91%
    02:00 +14°C° 0 mm 0 m/S 707 mmHg 91%
    03:00 +14°C° 0 mm 0 m/S 706 mmHg 91%
    04:00 +13°C° 0 mm 0 m/S 706 mmHg 91%
    05:00 +14°C° 0 mm 0 m/S 707 mmHg 90%
    06:00 +15°C° 0 mm 0 m/S 707 mmHg 89%
    07:00 +16°C° 0 mm 0 m/S 707 mmHg 88%
    08:00 +19°C° 0 mm 1 m/S 707 mmHg 81%
    09:00 +21°C° 0 mm 1 m/S 708 mmHg 75%
    10:00 +23°C° 0 mm 2 m/S 708 mmHg 68%
    11:00 +23°C° 0,1 mm 2 m/S 708 mmHg 66%
    12:00 +24°C° 0,1 mm 2 m/S 708 mmHg 65%
    13:00 +25°C° 0,1 mm 2 m/S 707 mmHg 63%
    14:00 +25°C° 0,2 mm 2 m/S 707 mmHg 63%
    15:00 +25°C° 0,2 mm 2 m/S 707 mmHg 64%
    16:00 +25°C° 0,2 mm 2 m/S 707 mmHg 65%
    17:00 +23°C° 0,1 mm 2 m/S 707 mmHg 69%
    18:00 +22°C° 0,1 mm 1 m/S 707 mmHg 74%
    19:00 +20°C° 0,1 mm 1 m/S 707 mmHg 79%
    20:00 +19°C° 0 mm 1 m/S 707 mmHg 81%
    21:00 +18°C° 0 mm 1 m/S 707 mmHg 83%
    22:00 +16°C° 0 mm 1 m/S 707 mmHg 85%
    23:00 +16°C° 0 mm 1 m/S 707 mmHg 86%

    20 August, Montag

    Zeit Temperatur Niederschläge Wind Luftdruck Luftfeuchtigkeit
    00:00 +15°C° 0 mm 1 m/S 707 mmHg 87%
    01:00 +15°C° 0 mm 1 m/S 707 mmHg 88%
    02:00 +15°C° 0 mm 1 m/S 706 mmHg 89%
    03:00 +14°C° 0 mm 1 m/S 706 mmHg 89%
    04:00 +14°C° 0 mm 1 m/S 706 mmHg 90%
    05:00 +15°C° 0 mm 1 m/S 706 mmHg 88%
    06:00 +16°C° 0 mm 1 m/S 707 mmHg 87%
    07:00 +18°C° 0 mm 1 m/S 707 mmHg 86%
    08:00 +20°C° 0 mm 1 m/S 707 mmHg 78%
    09:00 +22°C° 0 mm 1 m/S 707 mmHg 70%
    10:00 +24°C° 0 mm 1 m/S 707 mmHg 62%
    11:00 +25°C° 0 mm 1 m/S 707 mmHg 59%
    12:00 +26°C° 0 mm 1 m/S 707 mmHg 56%
    13:00 +27°C° 0 mm 2 m/S 707 mmHg 53%
    14:00 +27°C° 0 mm 2 m/S 707 mmHg 54%
    15:00 +26°C° 0 mm 2 m/S 707 mmHg 56%
    16:00 +26°C° 0 mm 2 m/S 706 mmHg 57%
    17:00 +25°C° 0 mm 1 m/S 706 mmHg 64%
    18:00 +23°C° 0 mm 1 m/S 706 mmHg 71%
    19:00 +21°C° 0 mm 1 m/S 706 mmHg 78%
    20:00 +20°C° 0 mm 1 m/S 706 mmHg 81%
    21:00 +19°C° 0 mm 1 m/S 706 mmHg 84%
    22:00 +18°C° 0 mm 1 m/S 706 mmHg 87%
    23:00 +18°C° 0 mm 1 m/S 706 mmHg 88%
    Mehr zeigen